Location: Alafon
(8.4500°N, 4.2333°E)
Time: 07:53:23
(UTC+00:00)

S-56A Canister/Altair - Visible Passes

Search period start: 24 July 2021 00:00
Search period end: 03 August 2021 00:00
Orbit: 632 x 2501 km, 38.9° (Epoch: 23 July)

Date Brightness Start Highest point End Pass type
(mag) Time Alt. Az. Time Alt. Az. Time Alt. Az.
24 Jul 11.4 19:43:02 10° NNW 19:48:06 13° N 19:52:44 10° NNE visible
24 Jul 10.7 21:51:09 10° NNW 21:57:54 18° NNE 21:57:54 18° NNE visible
25 Jul 11.5 19:08:08 10° NNW 19:14:12 13° N 19:19:44 10° NNE visible
25 Jul 10.7 21:17:29 10° NNW 21:24:44 18° NNE 21:26:34 17° NNE visible
25 Jul 11.1 23:22:44 10° NW 23:23:57 14° NW 23:23:57 14° NW visible
26 Jul 11.5 18:33:15 10° NW 18:40:13 14° N 18:46:37 10° NNE visible
26 Jul 10.8 20:43:44 10° NNW 20:51:12 17° NNE 20:55:15 14° NE visible
26 Jul 10.8 22:49:16 10° NW 22:52:39 20° NNW 22:52:39 20° NNW visible
27 Jul 10.9 20:09:52 10° NNW 20:17:34 17° NNE 20:23:58 10° NE visible
27 Jul 10.5 22:15:44 10° NW 22:21:22 27° NNW 22:21:22 27° NNW visible
28 Jul 11.0 19:35:56 10° NNW 19:43:49 17° N 19:50:34 10° NE visible
28 Jul 10.3 21:42:10 10° NNW 21:50:07 32° N 21:50:07 32° N visible
29 Jul 11.2 19:01:57 10° NNW 19:09:58 17° N 19:17:01 10° NE visible
29 Jul 10.2 21:08:33 10° NNW 21:18:53 33° NNE 21:18:53 33° NNE visible
29 Jul 11.2 23:15:02 10° NW 23:16:18 14° NW 23:16:18 14° NW visible
30 Jul 11.3 18:27:54 10° NNW 18:36:01 16° N 18:43:20 10° NE visible
30 Jul 10.2 20:34:54 10° NNW 20:46:02 31° NNE 20:47:43 30° NE visible
30 Jul 10.8 22:41:17 10° NW 22:45:07 23° NW 22:45:07 23° NW visible
31 Jul 10.4 20:01:14 10° NNW 20:12:30 29° NNE 20:16:33 24° NE visible
31 Jul 10.4 22:07:33 10° NW 22:13:58 34° NW 22:13:58 34° NW visible
01 Aug 10.6 19:27:35 10° NNW 19:38:52 27° NNE 19:45:27 17° ENE visible
01 Aug 9.9 21:33:49 10° NW 21:42:52 48° NNW 21:42:52 48° NNW visible
02 Aug 10.8 18:53:55 10° NNW 19:05:08 26° NNE 19:14:23 10° ENE visible
02 Aug 9.5 21:00:06 10° NW 21:11:48 60° N 21:11:48 60° N visible
02 Aug 11.3 23:08:37 10° WNW 23:09:14 12° WNW 23:09:14 12° WNW visible
